Castroville, TX

5:20 AM CST on December 13, 2019 (GMT -0600)
Castroville

Weather History for KCVB - November, 2019

Change the Weather History Date:

Tuesday, November 19, 2019

  Actual Average (KHDO) Record (KHDO)
Temperature  
Mean Temperature 62 °F -  
Max Temperature 77 °F 68 °F 80 °F (1996)
Min Temperature 46 °F 47 °F 28 °F (2014)
Degree Days  
Heating Degree Days 4    
Growing Degree Days 12 (Base 50)    
Moisture  
Dew Point 51 °F    
Average Humidity 72    
Maximum Humidity 97    
Minimum Humidity 40    
Precipitation  
Precipitation 0.00 in - - ()
Sea Level Pressure  
Sea Level Pressure 29.99 in    
Wind  
Wind Speed 6 mph (SSE)    
Max Wind Speed 12 mph    
Max Gust Speed 17 mph    
Visibility 10 miles    
Events      
Averages and records for this station are not official NWS values.
T = Trace of Precipitation, MM = Missing Value Source: NWS Daily Summary

Daily Weather History Graph

Daily Weather History Graph

Search for Another Location

Airport or City:

Astronomy

Nov. 19, 2019 Rise Set
Actual Time 7:02 AM CST 5:38 PM CST
Civil Twilight 6:37 AM CST 6:04 PM CST
Nautical Twilight 6:08 AM CST 6:33 PM CST
Astronomical Twilight 5:39 AM CST 7:01 PM CST
Moon No Moon Rise 1:16 PM CST (11/19)
Length of Visible Light 11h 27m
Length of Day
10h 36m
Waning Gibbous, 51% of the Moon is Illuminated
Nov 19
Waning Gibbous
Nov 19
Last Quarter
Nov 26
New
Dec 4
First Quarter
Dec 11
Full

Hourly Weather History & Observations

Time (CST) Temp. Windchill Dew Point Humidity Pressure Visibility Wind Dir Wind Speed Gust Speed Precip Events Conditions
12:15 AM 48.7 °F - 46.4 °F 92% 29.99 in 10.0 mi NNW 5.8 mph - N/A   Clear
12:35 AM 48.7 °F - 46.4 °F 92% 29.98 in 10.0 mi NNW 4.6 mph - N/A   Clear
12:55 AM 48.2 °F - 45.7 °F 91% 29.98 in 10.0 mi NW 4.6 mph - N/A   Clear
1:15 AM 47.7 °F - 45.7 °F 93% 29.98 in 10.0 mi NW 4.6 mph - N/A   Clear
1:35 AM 47.8 °F - 46.0 °F 93% 29.98 in 10.0 mi NW 5.8 mph - N/A   Clear
1:50 AM 47.7 °F - 45.9 °F 93% 29.98 in 10.0 mi NW 5.8 mph - N/A   Clear
2:15 AM 47.5 °F - 45.7 °F 93% 29.98 in 10.0 mi NW 5.8 mph - N/A   Clear
2:30 AM 47.3 °F - 45.5 °F 93% 29.98 in 10.0 mi NW 5.8 mph - N/A   Clear
2:55 AM 46.8 °F - 45.3 °F 95% 29.99 in 10.0 mi NW 5.8 mph - N/A   Clear
3:35 AM 46.6 °F - 45.5 °F 96% 29.99 in 10.0 mi NW 4.6 mph - N/A   Clear
4:35 AM 46.6 °F - 45.7 °F 97% 29.99 in 10.0 mi WNW 4.6 mph - N/A   Clear
4:55 AM 46.4 °F 44.3 °F 45.5 °F 97% 29.99 in 10.0 mi NW 4.6 mph - N/A   Clear
5:35 AM 46.4 °F 44.3 °F 45.5 °F 97% 29.99 in 10.0 mi WNW 4.6 mph - N/A   Clear
5:55 AM 46.4 °F 44.3 °F 45.5 °F 97% 30.00 in 10.0 mi WNW 4.6 mph - N/A   Clear
6:15 AM 46.4 °F 43.5 °F 45.5 °F 97% 30.00 in 10.0 mi NW 5.8 mph - N/A   Clear
6:35 AM 46.4 °F 43.5 °F 45.7 °F 97% 30.00 in 10.0 mi WNW 5.8 mph - N/A   Clear
6:55 AM 46.4 °F 42.9 °F 45.7 °F 97% 30.01 in 10.0 mi NW 6.9 mph - N/A   Clear
7:15 AM 46.6 °F - 45.9 °F 97% 30.02 in 10.0 mi NW 5.8 mph - N/A   Clear
7:35 AM 47.3 °F - 46.6 °F 97% 30.02 in 10.0 mi NW 5.8 mph - N/A   Clear
7:55 AM 49.1 °F - 47.7 °F 95% 30.02 in 10.0 mi NW 3.5 mph - N/A   Clear
8:15 AM 50.7 °F - 48.2 °F 91% 30.02 in 10.0 mi NW 4.6 mph - N/A   Clear
8:35 AM 52.7 °F - 49.1 °F 88% 30.02 in 10.0 mi NW 4.6 mph - N/A   Clear
8:55 AM 55.2 °F - 50.5 °F 84% 30.03 in 10.0 mi NW 3.5 mph - N/A   Clear
9:35 AM 61.3 °F - 54.3 °F 78% 30.04 in 10.0 mi Calm Calm - N/A   Clear
9:55 AM 64.2 °F - 56.3 °F 75% 30.05 in 10.0 mi Calm Calm - N/A   Clear
10:15 AM 65.7 °F - 54.7 °F 68% 30.05 in 10.0 mi Calm Calm - N/A   Clear
10:35 AM 68.5 °F - 55.8 °F 64% 30.05 in 10.0 mi SSE 9.2 mph - N/A   Clear
10:55 AM 69.8 °F - 55.9 °F 61% 30.05 in 10.0 mi South 5.8 mph - N/A   Clear
11:15 AM 70.7 °F - 55.8 °F 59% 30.04 in 10.0 mi South 6.9 mph - N/A   Clear
11:35 AM 71.6 °F - 56.3 °F 58% 30.04 in 10.0 mi SSE 5.8 mph - N/A   Clear
11:55 AM 72.3 °F - 55.2 °F 55% 30.03 in 10.0 mi South 11.5 mph - N/A   Clear
12:15 PM 73.2 °F - 55.2 °F 53% 30.02 in 10.0 mi South 9.2 mph - N/A   Clear
12:35 PM 73.9 °F - 55.2 °F 52% 30.01 in 10.0 mi South 8.1 mph - N/A   Clear
12:55 PM 74.5 °F - 55.0 °F 51% 29.99 in 10.0 mi SSE 5.8 mph - N/A   Clear
1:15 PM 75.0 °F - 54.9 °F 49% 29.98 in 10.0 mi SSE 9.2 mph - N/A   Clear
1:55 PM 77.0 °F - 54.5 °F 46% 29.96 in 10.0 mi South 9.2 mph - N/A   Clear
2:35 PM 77.2 °F - 52.0 °F 41% 29.95 in 10.0 mi SE 6.9 mph - N/A   Clear
2:55 PM 77.4 °F - 51.3 °F 40% 29.94 in 10.0 mi SE 9.2 mph - N/A   Clear
3:15 PM 77.5 °F - 51.6 °F 40% 29.94 in 10.0 mi South 6.9 mph 17.3 mph N/A   Clear
3:35 PM 77.2 °F - 52.0 °F 41% 29.94 in 10.0 mi SSE 11.5 mph 16.1 mph N/A   Clear
3:55 PM 76.1 °F - 53.4 °F 45% 29.94 in 10.0 mi SE 9.2 mph - N/A   Clear
4:15 PM 76.1 °F - 54.0 °F 46% 29.94 in 10.0 mi South 11.5 mph 16.1 mph N/A   Clear
4:35 PM 75.7 °F - 54.0 °F 47% 29.94 in 10.0 mi SSE 6.9 mph - N/A   Clear
4:55 PM 74.8 °F - 54.0 °F 48% 29.94 in 10.0 mi ESE 8.1 mph - N/A   Clear
5:35 PM 72.3 °F - 52.7 °F 50% 29.94 in 10.0 mi ESE 5.8 mph - N/A   Clear
5:55 PM 70.7 °F - 52.2 °F 52% 29.94 in 10.0 mi ESE 4.6 mph - N/A   Clear
6:15 PM 69.6 °F - 51.8 °F 53% 29.94 in 10.0 mi ESE 4.6 mph - N/A   Clear
6:35 PM 68.4 °F - 51.8 °F 55% 29.94 in 10.0 mi ESE 3.5 mph - N/A   Clear
6:55 PM 67.3 °F - 51.3 °F 56% 29.95 in 10.0 mi SE 3.5 mph - N/A   Clear
7:15 PM 66.6 °F - 51.1 °F 57% 29.95 in 10.0 mi SE 4.6 mph - N/A   Clear
7:35 PM 66.6 °F - 50.9 °F 57% 29.95 in 10.0 mi SE 4.6 mph - N/A   Clear
7:55 PM 66.2 °F - 51.3 °F 59% 29.96 in 10.0 mi SE 3.5 mph - N/A   Clear
8:15 PM 65.7 °F - 51.4 °F 60% 29.97 in 10.0 mi SE 3.5 mph - N/A   Clear
8:35 PM 65.1 °F - 51.4 °F 61% 29.97 in 10.0 mi SE 3.5 mph - N/A   Clear
8:55 PM 65.1 °F - 51.8 °F 62% 29.97 in 10.0 mi SE 6.9 mph - N/A   Clear
9:15 PM 65.3 °F - 53.1 °F 65% 29.97 in 10.0 mi SE 6.9 mph - N/A   Clear
9:35 PM 64.4 °F - 53.1 °F 67% 29.97 in 10.0 mi SE 5.8 mph - N/A   Clear
9:55 PM 64.2 °F - 54.5 °F 71% 29.97 in 10.0 mi SE 5.8 mph - N/A   Clear
10:15 PM 63.5 °F - 55.6 °F 75% 29.98 in 10.0 mi SE 5.8 mph - N/A   Scattered Clouds
10:35 PM 63.5 °F - 55.4 °F 75% 29.98 in 10.0 mi ESE 3.5 mph - N/A   Mostly Cloudy
10:55 PM 63.5 °F - 57.4 °F 80% 29.98 in 10.0 mi SE 3.5 mph - N/A   Overcast
11:15 PM 64.4 °F - 59.7 °F 85% 29.98 in 10.0 mi ESE 3.5 mph - N/A   Overcast
11:35 PM 64.4 °F - 61.7 °F 91% 29.98 in 10.0 mi SE 3.5 mph - N/A   Overcast
11:55 PM 64.4 °F - 62.2 °F 93% 29.97 in 10.0 mi SE 5.8 mph - N/A   Overcast